Time,TemperatureF,DewpointF,PressureIn,WindDirection,WindDirectionDegrees,WindSpeedMPH,WindSpeedGustMPH,Humidity,HourlyPrecipIn,Conditions,Clouds,dailyrainin,SoftwareType,DateUTC
2013-10-15 00:00:00,47.0,38.8,30.07,ESE,112,3.0,8.0,73,0.00,,,-99.99,Weather View 32 v60,2013-10-15 05:00:00,
2013-10-15 00:05:00,47.0,39.1,30.06,ESE,112,3.0,10.0,74,0.00,,,-99.99,Weather View 32 v60,2013-10-15 05:05:00,
2013-10-15 00:10:00,47.0,39.1,30.07,SE,135,4.0,10.0,74,0.00,,,-99.99,Weather View 32 v60,2013-10-15 05:10:00,
2013-10-15 00:15:00,47.0,39.5,30.06,SE,135,7.0,10.0,75,0.00,,,-99.99,Weather View 32 v60,2013-10-15 05:15:00,
2013-10-15 00:25:00,46.0,38.8,30.07,SSE,158,3.0,10.0,76,0.00,,,-99.99,Weather View 32 v60,2013-10-15 05:25:00,
2013-10-15 00:30:00,46.0,38.8,30.07,SSW,202,1.0,10.0,76,0.00,,,-99.99,Weather View 32 v60,2013-10-15 05:30:00,
2013-10-15 00:35:00,46.0,39.2,30.06,SE,135,4.0,10.0,77,0.00,,,-99.99,Weather View 32 v60,2013-10-15 05:35:00,
2013-10-15 00:40:00,46.0,39.2,30.06,SSE,158,2.0,10.0,77,0.00,,,-99.99,Weather View 32 v60,2013-10-15 05:40:00,
2013-10-15 00:45:00,46.0,39.2,30.06,SE,135,3.0,10.0,77,0.00,,,-99.99,Weather View 32 v60,2013-10-15 05:45:00,
2013-10-15 00:50:00,46.0,39.5,30.06,ESE,112,5.0,10.0,78,0.00,,,-99.99,Weather View 32 v60,2013-10-15 05:50:00,
2013-10-15 00:55:00,46.0,39.5,30.06,SSE,158,3.0,10.0,78,0.00,,,-99.99,Weather View 32 v60,2013-10-15 05:55:00,
2013-10-15 01:00:00,46.0,39.5,30.05,SE,135,3.0,10.0,78,0.00,,,-99.99,Weather View 32 v60,2013-10-15 06:00:00,
2013-10-15 01:05:00,47.0,40.8,30.04,East,90,5.0,9.0,79,0.00,,,-99.99,Weather View 32 v60,2013-10-15 06:05:00,
2013-10-15 01:10:00,47.0,40.8,30.03,SE,135,3.0,11.0,79,0.00,,,-99.99,Weather View 32 v60,2013-10-15 06:10:00,
2013-10-15 01:20:00,47.0,41.1,30.03,East,90,8.0,13.0,80,0.00,,,-99.99,Weather View 32 v60,2013-10-15 06:20:00,
2013-10-15 01:25:00,47.0,41.1,30.03,ESE,112,5.0,13.0,80,0.00,,,-99.99,Weather View 32 v60,2013-10-15 06:25:00,
2013-10-15 01:30:00,47.0,41.1,30.03,SSE,158,12.0,14.0,80,0.00,,,-99.99,Weather View 32 v60,2013-10-15 06:30:00,
2013-10-15 01:35:00,47.0,41.1,30.02,East,90,5.0,15.0,80,0.00,,,-99.99,Weather View 32 v60,2013-10-15 06:35:00,
2013-10-15 01:40:00,47.0,41.5,30.02,ENE,68,5.0,15.0,81,0.00,,,-99.99,Weather View 32 v60,2013-10-15 06:40:00,
2013-10-15 01:45:00,47.0,41.5,30.02,ESE,112,4.0,15.0,81,0.00,,,-99.99,Weather View 32 v60,2013-10-15 06:45:00,
2013-10-15 01:50:00,47.0,41.5,30.02,SW,225,4.0,15.0,81,0.00,,,-99.99,Weather View 32 v60,2013-10-15 06:50:00,
2013-10-15 01:55:00,47.0,41.5,30.02,SSE,158,7.0,15.0,81,0.00,,,-99.99,Weather View 32 v60,2013-10-15 06:55:00,
2013-10-15 02:00:00,47.0,41.5,30.01,ESE,112,5.0,15.0,81,0.00,,,-99.99,Weather View 32 v60,2013-10-15 07:00:00,
2013-10-15 02:05:00,47.0,41.8,30.01,SE,135,6.0,15.0,82,0.00,,,-99.99,Weather View 32 v60,2013-10-15 07:05:00,
2013-10-15 02:10:00,47.0,41.8,30.01,ESE,112,5.0,15.0,82,0.00,,,-99.99,Weather View 32 v60,2013-10-15 07:10:00,
2013-10-15 02:15:00,47.0,41.8,30.01,ESE,112,6.0,16.0,82,0.00,,,-99.99,Weather View 32 v60,2013-10-15 07:15:00,
2013-10-15 02:20:00,46.0,40.8,30.00,SSE,158,3.0,16.0,82,0.00,,,-99.99,Weather View 32 v60,2013-10-15 07:20:00,
2013-10-15 02:25:00,46.0,40.8,29.99,South,180,4.0,16.0,82,0.00,,,-99.99,Weather View 32 v60,2013-10-15 07:25:00,
2013-10-15 02:30:00,46.0,40.8,29.98,SSW,202,7.0,16.0,82,0.00,,,-99.99,Weather View 32 v60,2013-10-15 07:30:00,
2013-10-15 02:35:00,46.0,41.1,29.98,ENE,68,10.0,16.0,83,0.00,,,-99.99,Weather View 32 v60,2013-10-15 07:35:00,
2013-10-15 02:45:00,46.0,41.1,29.98,ESE,112,10.0,16.0,83,0.00,,,-99.99,Weather View 32 v60,2013-10-15 07:45:00,
2013-10-15 02:50:00,46.0,41.1,30.00,SSW,202,4.0,16.0,83,0.00,,,-99.99,Weather View 32 v60,2013-10-15 07:50:00,
2013-10-15 02:55:00,46.0,41.1,30.00,ESE,112,3.0,16.0,83,0.00,,,-99.99,Weather View 32 v60,2013-10-15 07:55:00,
2013-10-15 03:00:00,46.0,41.1,29.99,SE,135,4.0,16.0,83,0.00,,,-99.99,Weather View 32 v60,2013-10-15 08:00:00,
2013-10-15 03:05:00,46.0,41.1,29.99,SE,135,2.0,16.0,83,0.00,,,-99.99,Weather View 32 v60,2013-10-15 08:05:00,
2013-10-15 03:10:00,46.0,41.4,29.98,SSE,158,4.0,16.0,84,0.00,,,-99.99,Weather View 32 v60,2013-10-15 08:10:00,
2013-10-15 03:15:00,46.0,41.4,29.98,ESE,112,2.0,16.0,84,0.00,,,-99.99,Weather View 32 v60,2013-10-15 08:15:00,
2013-10-15 03:20:00,46.0,41.4,29.97,SE,135,3.0,16.0,84,0.00,,,-99.99,Weather View 32 v60,2013-10-15 08:20:00,
2013-10-15 03:25:00,46.0,41.4,29.96,ESE,112,4.0,16.0,84,0.00,,,-99.99,Weather View 32 v60,2013-10-15 08:25:00,
2013-10-15 03:30:00,46.0,41.4,29.96,ESE,112,6.0,16.0,84,0.00,,,-99.99,Weather View 32 v60,2013-10-15 08:30:00,
2013-10-15 03:38:00,46.0,41.4,29.95,East,90,3.0,16.0,84,0.00,,,-99.99,Weather View 32 v60,2013-10-15 08:38:00,
2013-10-15 03:50:00,46.0,41.4,29.92,East,90,6.0,15.0,84,0.00,,,-99.99,Weather View 32 v60,2013-10-15 08:50:00,
2013-10-15 03:55:00,46.0,41.4,29.91,East,90,3.0,15.0,84,0.00,,,-99.99,Weather View 32 v60,2013-10-15 08:55:00,
2013-10-15 04:00:00,46.0,41.4,29.90,SSE,158,8.0,16.0,84,0.00,,,-99.99,Weather View 32 v60,2013-10-15 09:00:00,
2013-10-15 04:05:00,46.0,41.7,29.89,East,90,4.0,16.0,85,0.00,,,-99.99,Weather View 32 v60,2013-10-15 09:05:00,
2013-10-15 04:10:00,46.0,41.7,29.90,SE,135,5.0,16.0,85,0.00,,,-99.99,Weather View 32 v60,2013-10-15 09:10:00,
2013-10-15 04:15:00,46.0,41.7,29.91,East,90,4.0,16.0,85,0.00,,,-99.99,Weather View 32 v60,2013-10-15 09:15:00,
2013-10-15 04:20:00,46.0,41.7,29.92,ESE,112,3.0,16.0,85,0.00,,,-99.99,Weather View 32 v60,2013-10-15 09:20:00,
2013-10-15 04:25:00,46.0,41.7,29.93,SE,135,6.0,16.0,85,0.00,,,-99.99,Weather View 32 v60,2013-10-15 09:25:00,
2013-10-15 04:30:00,46.0,41.7,29.93,East,90,3.0,16.0,85,0.00,,,-99.99,Weather View 32 v60,2013-10-15 09:30:00,
2013-10-15 04:35:00,46.0,41.7,29.91,East,90,6.0,16.0,85,0.00,,,-99.99,Weather View 32 v60,2013-10-15 09:35:00,
2013-10-15 04:40:00,46.0,41.7,29.90,ENE,68,2.0,16.0,85,0.00,,,-99.99,Weather View 32 v60,2013-10-15 09:40:00,
2013-10-15 04:45:00,46.0,41.7,29.91,SSE,158,7.0,16.0,85,0.00,,,-99.99,Weather View 32 v60,2013-10-15 09:45:00,
2013-10-15 04:50:00,46.0,41.7,29.89,ENE,68,5.0,16.0,85,0.00,,,-99.99,Weather View 32 v60,2013-10-15 09:50:00,
2013-10-15 05:00:00,46.0,42.0,29.86,ESE,112,11.0,16.0,86,0.00,,,-99.99,Weather View 32 v60,2013-10-15 10:00:00,
2013-10-15 05:05:00,46.0,42.0,29.87,East,90,5.0,16.0,86,0.00,,,-99.99,Weather View 32 v60,2013-10-15 10:05:00,
2013-10-15 05:10:00,46.0,42.0,29.88,ESE,112,6.0,16.0,86,0.00,,,-99.99,Weather View 32 v60,2013-10-15 10:10:00,
2013-10-15 05:15:00,46.0,42.0,29.89,SSE,158,4.0,15.0,86,0.00,,,-99.99,Weather View 32 v60,2013-10-15 10:15:00,
2013-10-15 05:20:00,46.0,42.0,29.89,South,180,3.0,15.0,86,0.00,,,-99.99,Weather View 32 v60,2013-10-15 10:20:00,
2013-10-15 05:25:00,46.0,42.0,29.89,ESE,112,5.0,15.0,86,0.00,,,-99.99,Weather View 32 v60,2013-10-15 10:25:00,
2013-10-15 05:30:00,46.0,42.0,29.88,ENE,68,3.0,15.0,86,0.00,,,-99.99,Weather View 32 v60,2013-10-15 10:30:00,
2013-10-15 05:35:00,46.0,42.0,29.89,SSE,158,4.0,15.0,86,0.00,,,-99.99,Weather View 32 v60,2013-10-15 10:35:00,
2013-10-15 05:40:00,46.0,42.0,29.87,East,90,5.0,15.0,86,0.00,,,-99.99,Weather View 32 v60,2013-10-15 10:40:00,
2013-10-15 05:45:00,46.0,42.0,29.87,East,90,3.0,15.0,86,0.00,,,-99.99,Weather View 32 v60,2013-10-15 10:45:00,
2013-10-15 05:50:00,46.0,42.0,29.87,ESE,112,3.0,15.0,86,0.00,,,-99.99,Weather View 32 v60,2013-10-15 10:50:00,
2013-10-15 05:55:00,46.0,42.0,29.87,SE,135,3.0,15.0,86,0.00,,,-99.99,Weather View 32 v60,2013-10-15 10:55:00,
2013-10-15 06:00:00,46.0,42.0,29.86,ESE,112,3.0,14.0,86,0.00,,,-99.99,Weather View 32 v60,2013-10-15 11:00:00,
2013-10-15 06:05:00,46.0,42.0,29.85,East,90,5.0,10.0,86,0.00,,,-99.99,Weather View 32 v60,2013-10-15 11:05:00,
2013-10-15 06:15:00,46.0,42.0,29.85,ENE,68,4.0,10.0,86,0.00,,,-99.99,Weather View 32 v60,2013-10-15 11:15:00,
2013-10-15 06:20:00,47.0,43.0,29.85,ESE,112,3.0,10.0,86,0.00,,,-99.99,Weather View 32 v60,2013-10-15 11:20:00,
2013-10-15 06:25:00,47.0,43.0,29.85,ESE,112,2.0,10.0,86,0.00,,,-99.99,Weather View 32 v60,2013-10-15 11:25:00,
2013-10-15 06:30:00,47.0,43.0,29.84,East,90,5.0,10.0,86,0.00,,,-99.99,Weather View 32 v60,2013-10-15 11:30:00,
2013-10-15 06:35:00,47.0,43.0,29.84,NE,45,4.0,10.0,86,0.00,,,-99.99,Weather View 32 v60,2013-10-15 11:35:00,
2013-10-15 06:40:00,47.0,43.0,29.84,ESE,112,6.0,10.0,86,0.00,,,-99.99,Weather View 32 v60,2013-10-15 11:40:00,
2013-10-15 06:45:00,47.0,43.0,29.84,ENE,68,4.0,10.0,86,0.00,,,-99.99,Weather View 32 v60,2013-10-15 11:45:00,
2013-10-15 06:50:00,47.0,43.0,29.83,SE,135,5.0,10.0,86,0.00,,,-99.99,Weather View 32 v60,2013-10-15 11:50:00,
2013-10-15 06:55:00,47.0,43.0,29.83,South,180,6.0,10.0,86,0.00,,,-99.99,Weather View 32 v60,2013-10-15 11:55:00,
2013-10-15 07:00:00,47.0,43.0,29.82,SSE,158,3.0,10.0,86,0.00,,,-99.99,Weather View 32 v60,2013-10-15 12:00:00,
2013-10-15 07:05:00,47.0,43.3,29.82,ESE,112,7.0,10.0,87,0.00,,,-99.99,Weather View 32 v60,2013-10-15 12:05:00,
2013-10-15 07:10:00,47.0,43.3,29.83,SE,135,1.0,10.0,87,0.00,,,-99.99,Weather View 32 v60,2013-10-15 12:10:00,
2013-10-15 07:15:00,47.0,43.3,29.82,SE,135,5.0,11.0,87,0.00,,,-99.99,Weather View 32 v60,2013-10-15 12:15:00,
2013-10-15 07:20:00,47.0,43.3,29.82,SE,135,3.0,11.0,87,0.00,,,-99.99,Weather View 32 v60,2013-10-15 12:20:00,
2013-10-15 07:25:00,47.0,43.3,29.82,SE,135,3.0,11.0,87,0.00,,,-99.99,Weather View 32 v60,2013-10-15 12:25:00,
2013-10-15 07:30:00,47.0,43.3,29.82,ENE,68,4.0,11.0,87,0.00,,,-99.99,Weather View 32 v60,2013-10-15 12:30:00,
2013-10-15 07:35:00,47.0,43.3,29.82,NE,45,3.0,11.0,87,0.00,,,-99.99,Weather View 32 v60,2013-10-15 12:35:00,
2013-10-15 07:40:00,47.0,43.3,29.82,SSE,158,5.0,11.0,87,0.00,,,-99.99,Weather View 32 v60,2013-10-15 12:40:00,
2013-10-15 07:50:00,47.0,43.3,29.82,SSE,158,5.0,11.0,87,0.00,,,-99.99,Weather View 32 v60,2013-10-15 12:50:00,
2013-10-15 07:55:00,47.0,43.3,29.81,SSE,158,3.0,11.0,87,0.00,,,-99.99,Weather View 32 v60,2013-10-15 12:55:00,
2013-10-15 08:00:00,47.0,43.3,29.81,East,90,5.0,11.0,87,0.00,,,-99.99,Weather View 32 v60,2013-10-15 13:00:00,
2013-10-15 08:05:00,47.0,43.3,29.81,ESE,112,4.0,11.0,87,0.00,,,-99.99,Weather View 32 v60,2013-10-15 13:05:00,
2013-10-15 08:10:00,47.0,43.3,29.81,SE,135,6.0,11.0,87,0.00,,,-99.99,Weather View 32 v60,2013-10-15 13:10:00,
2013-10-15 08:15:00,47.0,43.3,29.80,East,90,3.0,11.0,87,0.00,,,-99.99,Weather View 32 v60,2013-10-15 13:15:00,
2013-10-15 08:20:00,47.0,43.3,29.80,ESE,112,3.0,11.0,87,0.00,,,-99.99,Weather View 32 v60,2013-10-15 13:20:00,
2013-10-15 08:30:00,47.0,43.3,29.80,East,90,3.0,11.0,87,0.00,,,-99.99,Weather View 32 v60,2013-10-15 13:30:00,
2013-10-15 08:35:00,47.0,43.3,29.80,East,90,4.0,10.0,87,0.00,,,-99.99,Weather View 32 v60,2013-10-15 13:35:00,
2013-10-15 08:40:00,47.0,43.3,29.80,SE,135,5.0,10.0,87,0.00,,,-99.99,Weather View 32 v60,2013-10-15 13:40:00,
2013-10-15 08:45:00,47.0,43.3,29.80,ENE,68,3.0,10.0,87,0.00,,,-99.99,Weather View 32 v60,2013-10-15 13:45:00,
2013-10-15 08:50:00,47.0,43.3,29.80,ESE,112,2.0,10.0,87,0.00,,,-99.99,Weather View 32 v60,2013-10-15 13:50:00,
2013-10-15 08:55:00,47.0,43.3,29.80,ESE,112,3.0,10.0,87,0.00,,,-99.99,Weather View 32 v60,2013-10-15 13:55:00,
2013-10-15 09:00:00,47.0,43.3,29.80,East,90,5.0,10.0,87,0.00,,,-99.99,Weather View 32 v60,2013-10-15 14:00:00,
2013-10-15 09:05:00,47.0,43.3,29.79,South,180,3.0,10.0,87,0.00,,,-99.99,Weather View 32 v60,2013-10-15 14:05:00,
2013-10-15 09:10:00,47.0,43.3,29.79,East,90,3.0,8.0,87,0.00,,,-99.99,Weather View 32 v60,2013-10-15 14:10:00,
2013-10-15 09:15:00,48.0,44.3,29.79,East,90,3.0,8.0,87,0.00,,,-99.99,Weather View 32 v60,2013-10-15 14:15:00,
2013-10-15 09:20:00,48.0,44.3,29.79,ESE,112,5.0,8.0,87,0.00,,,-99.99,Weather View 32 v60,2013-10-15 14:20:00,
2013-10-15 09:25:00,48.0,44.3,29.79,ESE,112,2.0,9.0,87,0.00,,,-99.99,Weather View 32 v60,2013-10-15 14:25:00,
2013-10-15 09:30:00,48.0,44.3,29.79,ESE,112,6.0,9.0,87,0.00,,,-99.99,Weather View 32 v60,2013-10-15 14:30:00,
2013-10-15 09:35:00,48.0,44.3,29.79,ESE,112,3.0,9.0,87,0.00,,,-99.99,Weather View 32 v60,2013-10-15 14:35:00,
2013-10-15 09:40:00,48.0,44.6,29.78,ESE,112,3.0,9.0,88,0.00,,,-99.99,Weather View 32 v60,2013-10-15 14:40:00,
2013-10-15 09:45:00,48.0,44.6,29.78,ESE,112,3.0,9.0,88,0.00,,,-99.99,Weather View 32 v60,2013-10-15 14:45:00,
2013-10-15 09:50:00,48.0,44.6,29.78,East,90,3.0,9.0,88,0.00,,,-99.99,Weather View 32 v60,2013-10-15 14:50:00,
2013-10-15 09:55:00,48.0,44.6,29.78,East,90,3.0,9.0,88,0.00,,,-99.99,Weather View 32 v60,2013-10-15 14:55:00,
2013-10-15 10:00:00,48.0,44.6,29.78,East,90,3.0,9.0,88,0.00,,,-99.99,Weather View 32 v60,2013-10-15 15:00:00,
2013-10-15 10:05:00,48.0,44.6,29.77,ESE,112,4.0,9.0,88,0.00,,,-99.99,Weather View 32 v60,2013-10-15 15:05:00,
2013-10-15 10:10:00,48.0,44.6,29.78,SSW,202,1.0,9.0,88,0.00,,,-99.99,Weather View 32 v60,2013-10-15 15:10:00,
2013-10-15 10:15:00,48.0,44.6,29.77,East,90,3.0,9.0,88,0.00,,,-99.99,Weather View 32 v60,2013-10-15 15:15:00,
2013-10-15 10:20:00,48.0,44.6,29.77,ENE,68,3.0,9.0,88,0.00,,,-99.99,Weather View 32 v60,2013-10-15 15:20:00,
2013-10-15 10:30:00,48.0,44.6,29.77,SSE,158,3.0,8.0,88,0.00,,,-99.99,Weather View 32 v60,2013-10-15 15:30:00,
2013-10-15 10:35:00,48.0,44.6,29.77,SSE,158,3.0,8.0,88,0.00,,,-99.99,Weather View 32 v60,2013-10-15 15:35:00,
2013-10-15 10:40:00,48.0,44.6,29.77,NE,45,5.0,8.0,88,0.00,,,-99.99,Weather View 32 v60,2013-10-15 15:40:00,
2013-10-15 10:45:00,49.0,45.6,29.77,East,90,3.0,8.0,88,0.00,,,-99.99,Weather View 32 v60,2013-10-15 15:45:00,
2013-10-15 10:50:00,49.0,45.6,29.77,ENE,68,5.0,8.0,88,0.00,,,-99.99,Weather View 32 v60,2013-10-15 15:50:00,
2013-10-15 10:55:00,49.0,45.6,29.77,East,90,6.0,8.0,88,0.00,,,-99.99,Weather View 32 v60,2013-10-15 15:55:00,
2013-10-15 11:00:00,49.0,45.6,29.77,East,90,5.0,8.0,88,0.00,,,-99.99,Weather View 32 v60,2013-10-15 16:00:00,
2013-10-15 11:10:00,49.0,45.6,29.76,SSE,158,1.0,8.0,88,0.00,,,-99.99,Weather View 32 v60,2013-10-15 16:10:00,
2013-10-15 11:15:00,49.0,45.6,29.76,East,90,5.0,8.0,88,0.00,,,-99.99,Weather View 32 v60,2013-10-15 16:15:00,
2013-10-15 11:20:00,49.0,45.6,29.76,East,90,3.0,8.0,88,0.00,,,-99.99,Weather View 32 v60,2013-10-15 16:20:00,
2013-10-15 11:25:00,49.0,45.6,29.76,ENE,68,6.0,10.0,88,0.00,,,-99.99,Weather View 32 v60,2013-10-15 16:25:00,
2013-10-15 11:30:00,49.0,45.6,29.76,East,90,3.0,10.0,88,0.00,,,-99.99,Weather View 32 v60,2013-10-15 16:30:00,
2013-10-15 11:35:00,49.0,45.6,29.76,NNW,338,2.0,10.0,88,0.00,,,-99.99,Weather View 32 v60,2013-10-15 16:35:00,
2013-10-15 11:40:00,49.0,45.6,29.75,East,90,3.0,10.0,88,0.00,,,-99.99,Weather View 32 v60,2013-10-15 16:40:00,
2013-10-15 11:45:00,49.0,45.6,29.75,East,90,3.0,10.0,88,0.00,,,-99.99,Weather View 32 v60,2013-10-15 16:45:00,
2013-10-15 11:50:00,49.0,45.6,29.75,East,90,6.0,10.0,88,0.00,,,-99.99,Weather View 32 v60,2013-10-15 16:50:00,
2013-10-15 11:55:00,49.0,45.6,29.75,ESE,112,3.0,10.0,88,0.00,,,-99.99,Weather View 32 v60,2013-10-15 16:55:00,
2013-10-15 12:00:00,49.0,45.6,29.75,ENE,68,3.0,10.0,88,0.00,,,-99.99,Weather View 32 v60,2013-10-15 17:00:00,
2013-10-15 12:05:00,49.0,45.6,29.75,East,90,3.0,10.0,88,0.00,,,-99.99,Weather View 32 v60,2013-10-15 17:05:00,
2013-10-15 12:10:00,49.0,45.6,29.75,SE,135,3.0,10.0,88,0.00,,,-99.99,Weather View 32 v60,2013-10-15 17:10:00,
2013-10-15 12:15:00,49.0,45.6,29.75,ENE,68,3.0,10.0,88,0.00,,,-99.99,Weather View 32 v60,2013-10-15 17:15:00,
2013-10-15 12:25:00,49.0,45.6,29.75,East,90,6.0,10.0,88,0.00,,,-99.99,Weather View 32 v60,2013-10-15 17:25:00,
2013-10-15 12:30:00,49.0,45.6,29.74,North,0,2.0,11.0,88,0.00,,,-99.99,Weather View 32 v60,2013-10-15 17:30:00,
2013-10-15 12:35:00,49.0,45.6,29.74,East,90,8.0,14.0,88,0.00,,,-99.99,Weather View 32 v60,2013-10-15 17:35:00,
2013-10-15 12:40:00,49.0,45.6,29.74,ESE,112,5.0,14.0,88,0.00,,,-99.99,Weather View 32 v60,2013-10-15 17:40:00,
2013-10-15 12:45:00,49.0,45.6,29.74,East,90,5.0,14.0,88,0.00,,,-99.99,Weather View 32 v60,2013-10-15 17:45:00,
2013-10-15 12:50:00,49.0,45.6,29.74,East,90,6.0,14.0,88,0.00,,,-99.99,Weather View 32 v60,2013-10-15 17:50:00,
2013-10-15 12:55:00,49.0,45.6,29.74,East,90,5.0,14.0,88,0.00,,,-99.99,Weather View 32 v60,2013-10-15 17:55:00,
2013-10-15 13:00:00,49.0,45.6,29.73,NE,45,5.0,14.0,88,0.00,,,-99.99,Weather View 32 v60,2013-10-15 18:00:00,
2013-10-15 13:05:00,49.0,45.6,29.73,East,90,5.0,14.0,88,0.00,,,-99.99,Weather View 32 v60,2013-10-15 18:05:00,
2013-10-15 13:10:00,49.0,45.6,29.73,SE,135,5.0,14.0,88,0.00,,,-99.99,Weather View 32 v60,2013-10-15 18:10:00,
2013-10-15 13:15:00,49.0,45.9,29.73,East,90,3.0,14.0,89,0.00,,,-99.99,Weather View 32 v60,2013-10-15 18:15:00,
2013-10-15 13:20:00,49.0,45.9,29.73,NE,45,3.0,14.0,89,0.00,,,-99.99,Weather View 32 v60,2013-10-15 18:20:00,
2013-10-15 13:25:00,49.0,45.9,29.73,East,90,3.0,14.0,89,0.00,,,-99.99,Weather View 32 v60,2013-10-15 18:25:00,
2013-10-15 13:35:00,49.0,45.9,29.72,East,90,8.0,14.0,89,0.00,,,-99.99,Weather View 32 v60,2013-10-15 18:35:00,
2013-10-15 13:40:00,49.0,45.9,29.72,East,90,6.0,14.0,89,0.00,,,-99.99,Weather View 32 v60,2013-10-15 18:40:00,
2013-10-15 13:45:00,49.0,45.9,29.72,ESE,112,3.0,14.0,89,0.00,,,-99.99,Weather View 32 v60,2013-10-15 18:45:00,
2013-10-15 13:50:00,49.0,45.9,29.72,East,90,2.0,14.0,89,0.00,,,-99.99,Weather View 32 v60,2013-10-15 18:50:00,
2013-10-15 13:55:00,49.0,45.9,29.72,SE,135,4.0,14.0,89,0.00,,,-99.99,Weather View 32 v60,2013-10-15 18:55:00,
2013-10-15 14:00:00,49.0,45.9,29.72,ESE,112,4.0,12.0,89,0.00,,,-99.99,Weather View 32 v60,2013-10-15 19:00:00,
2013-10-15 14:10:00,49.0,45.9,29.71,NE,45,3.0,11.0,89,0.00,,,-99.99,Weather View 32 v60,2013-10-15 19:10:00,
2013-10-15 14:15:00,49.0,45.9,29.71,ESE,112,6.0,11.0,89,0.00,,,-99.99,Weather View 32 v60,2013-10-15 19:15:00,
2013-10-15 14:20:00,49.0,45.9,29.71,SE,135,3.0,11.0,89,0.00,,,-99.99,Weather View 32 v60,2013-10-15 19:20:00,
2013-10-15 14:25:00,49.0,45.9,29.71,SE,135,2.0,11.0,89,0.00,,,-99.99,Weather View 32 v60,2013-10-15 19:25:00,
2013-10-15 14:30:00,49.0,45.9,29.71,NE,45,5.0,11.0,89,0.00,,,-99.99,Weather View 32 v60,2013-10-15 19:30:00,
2013-10-15 14:35:00,49.0,45.9,29.71,ESE,112,1.0,11.0,89,0.00,,,-99.99,Weather View 32 v60,2013-10-15 19:35:00,
2013-10-15 14:40:00,49.0,45.9,29.71,East,90,3.0,11.0,89,0.00,,,-99.99,Weather View 32 v60,2013-10-15 19:40:00,
2013-10-15 14:45:00,49.0,45.9,29.71,ENE,68,5.0,11.0,89,0.00,,,-99.99,Weather View 32 v60,2013-10-15 19:45:00,
2013-10-15 14:50:00,49.0,45.9,29.71,NNE,22,6.0,11.0,89,0.00,,,-99.99,Weather View 32 v60,2013-10-15 19:50:00,
2013-10-15 14:55:00,49.0,45.9,29.71,East,90,3.0,11.0,89,0.00,,,-99.99,Weather View 32 v60,2013-10-15 19:55:00,
2013-10-15 15:00:00,49.0,45.9,29.70,NE,45,6.0,11.0,89,0.00,,,-99.99,Weather View 32 v60,2013-10-15 20:00:00,
2013-10-15 15:05:00,49.0,45.9,29.70,NE,45,3.0,10.0,89,0.00,,,-99.99,Weather View 32 v60,2013-10-15 20:05:00,
2013-10-15 15:15:00,49.0,45.9,29.70,NNE,22,4.0,11.0,89,0.00,,,-99.99,Weather View 32 v60,2013-10-15 20:15:00,
2013-10-15 15:20:00,49.0,45.9,29.70,North,0,3.0,11.0,89,0.00,,,-99.99,Weather View 32 v60,2013-10-15 20:20:00,
2013-10-15 15:25:00,49.0,45.9,29.70,NNE,22,3.0,11.0,89,0.00,,,-99.99,Weather View 32 v60,2013-10-15 20:25:00,
2013-10-15 15:30:00,49.0,45.9,29.70,ENE,68,5.0,11.0,89,0.00,,,-99.99,Weather View 32 v60,2013-10-15 20:30:00,
2013-10-15 15:35:00,49.0,45.9,29.70,ESE,112,3.0,11.0,89,0.00,,,-99.99,Weather View 32 v60,2013-10-15 20:35:00,
2013-10-15 15:40:00,49.0,45.9,29.70,NNE,22,2.0,11.0,89,0.00,,,-99.99,Weather View 32 v60,2013-10-15 20:40:00,
2013-10-15 15:45:00,49.0,45.9,29.70,East,90,5.0,11.0,89,0.00,,,-99.99,Weather View 32 v60,2013-10-15 20:45:00,
2013-10-15 15:50:00,49.0,45.9,29.70,NE,45,7.0,11.0,89,0.00,,,-99.99,Weather View 32 v60,2013-10-15 20:50:00,
2013-10-15 15:55:00,49.0,45.9,29.70,ESE,112,5.0,12.0,89,0.00,,,-99.99,Weather View 32 v60,2013-10-15 20:55:00,
2013-10-15 16:00:00,49.0,45.9,29.70,ENE,68,10.0,12.0,89,0.00,,,-99.99,Weather View 32 v60,2013-10-15 21:00:00,
2013-10-15 16:05:00,50.0,46.9,29.70,NNE,22,3.0,12.0,89,0.00,,,-99.99,Weather View 32 v60,2013-10-15 21:05:00,
2013-10-15 16:10:00,50.0,46.9,29.70,ESE,112,3.0,12.0,89,0.00,,,-99.99,Weather View 32 v60,2013-10-15 21:10:00,
2013-10-15 16:15:00,50.0,46.9,29.70,NNE,22,3.0,12.0,89,0.00,,,-99.99,Weather View 32 v60,2013-10-15 21:15:00,
2013-10-15 16:20:00,50.0,46.9,29.70,South,180,6.0,16.0,89,0.00,,,-99.99,Weather View 32 v60,2013-10-15 21:20:00,
2013-10-15 16:25:00,50.0,46.9,29.71,ENE,68,5.0,16.0,89,0.00,,,-99.99,Weather View 32 v60,2013-10-15 21:25:00,
2013-10-15 16:30:00,50.0,46.9,29.71,East,90,2.0,16.0,89,0.00,,,-99.99,Weather View 32 v60,2013-10-15 21:30:00,
2013-10-15 16:35:00,50.0,46.9,29.71,ENE,68,5.0,16.0,89,0.00,,,-99.99,Weather View 32 v60,2013-10-15 21:35:00,
2013-10-15 16:40:00,49.0,45.9,29.71,East,90,2.0,16.0,89,0.00,,,-99.99,Weather View 32 v60,2013-10-15 21:40:00,
2013-10-15 16:45:00,49.0,45.9,29.71,North,0,3.0,16.0,89,0.00,,,-99.99,Weather View 32 v60,2013-10-15 21:45:00,
2013-10-15 16:55:00,49.0,45.9,29.71,NE,45,5.0,16.0,89,0.00,,,-99.99,Weather View 32 v60,2013-10-15 21:55:00,
2013-10-15 17:00:00,49.0,45.9,29.71,East,90,5.0,16.0,89,0.00,,,-99.99,Weather View 32 v60,2013-10-15 22:00:00,
2013-10-15 17:05:00,49.0,45.9,29.71,SE,135,3.0,16.0,89,0.00,,,-99.99,Weather View 32 v60,2013-10-15 22:05:00,
2013-10-15 17:10:00,49.0,45.9,29.71,North,0,6.0,16.0,89,0.00,,,-99.99,Weather View 32 v60,2013-10-15 22:10:00,
2013-10-15 17:15:00,49.0,45.9,29.71,East,90,5.0,16.0,89,0.00,,,-99.99,Weather View 32 v60,2013-10-15 22:15:00,
2013-10-15 17:20:00,49.0,45.9,29.72,NNE,22,4.0,16.0,89,0.00,,,-99.99,Weather View 32 v60,2013-10-15 22:20:00,
2013-10-15 17:30:00,49.0,45.9,29.72,ENE,68,3.0,14.0,89,0.00,,,-99.99,Weather View 32 v60,2013-10-15 22:30:00,
2013-10-15 17:35:00,49.0,45.9,29.72,East,90,10.0,14.0,89,0.00,,,-99.99,Weather View 32 v60,2013-10-15 22:35:00,
2013-10-15 17:40:00,49.0,45.9,29.72,ENE,68,5.0,14.0,89,0.00,,,-99.99,Weather View 32 v60,2013-10-15 22:40:00,
2013-10-15 17:45:00,49.0,45.9,29.73,ESE,112,6.0,14.0,89,0.00,,,-99.99,Weather View 32 v60,2013-10-15 22:45:00,
2013-10-15 17:55:00,49.0,45.9,29.73,NE,45,1.0,14.0,89,0.00,,,-99.99,Weather View 32 v60,2013-10-15 22:55:00,
2013-10-15 18:00:00,49.0,45.9,29.73,East,90,5.0,11.0,89,0.00,,,-99.99,Weather View 32 v60,2013-10-15 23:00:00,
2013-10-15 18:05:00,49.0,45.9,29.73,ENE,68,6.0,11.0,89,0.00,,,-99.99,Weather View 32 v60,2013-10-15 23:05:00,
2013-10-15 18:10:00,49.0,45.9,29.73,East,90,3.0,11.0,89,0.00,,,-99.99,Weather View 32 v60,2013-10-15 23:10:00,
2013-10-15 18:15:00,49.0,45.9,29.73,ENE,68,1.0,11.0,89,0.00,,,-99.99,Weather View 32 v60,2013-10-15 23:15:00,
2013-10-15 18:25:00,49.0,45.9,29.74,NNE,22,3.0,11.0,89,0.00,,,-99.99,Weather View 32 v60,2013-10-15 23:25:00,
2013-10-15 18:30:00,49.0,45.9,29.74,NE,45,4.0,11.0,89,0.00,,,-99.99,Weather View 32 v60,2013-10-15 23:30:00,
2013-10-15 18:35:00,49.0,45.9,29.74,NE,45,4.0,11.0,89,0.00,,,-99.99,Weather View 32 v60,2013-10-15 23:35:00,
2013-10-15 18:40:00,49.0,45.9,29.74,NNE,22,3.0,11.0,89,0.00,,,-99.99,Weather View 32 v60,2013-10-15 23:40:00,
2013-10-15 18:45:00,49.0,45.9,29.74,NNE,22,3.0,11.0,89,0.00,,,-99.99,Weather View 32 v60,2013-10-15 23:45:00,
2013-10-15 18:50:00,49.0,45.9,29.75,NE,45,5.0,11.0,89,0.00,,,-99.99,Weather View 32 v60,2013-10-15 23:50:00,
2013-10-15 18:55:00,48.0,44.9,29.75,ENE,68,4.0,11.0,89,0.00,,,-99.99,Weather View 32 v60,2013-10-15 23:55:00,
2013-10-15 19:00:00,48.0,44.9,29.75,East,90,3.0,11.0,89,0.00,,,-99.99,Weather View 32 v60,2013-10-16 00:00:00,
2013-10-15 19:05:00,48.0,44.9,29.75,North,0,6.0,9.0,89,0.00,,,-99.99,Weather View 32 v60,2013-10-16 00:05:00,
2013-10-15 19:10:00,48.0,44.9,29.75,ESE,112,3.0,9.0,89,0.00,,,-99.99,Weather View 32 v60,2013-10-16 00:10:00,
2013-10-15 19:15:00,48.0,44.9,29.75,NNE,22,3.0,10.0,89,0.00,,,-99.99,Weather View 32 v60,2013-10-16 00:15:00,
2013-10-15 19:25:00,48.0,44.9,29.76,NE,45,7.0,10.0,89,0.00,,,-99.99,Weather View 32 v60,2013-10-16 00:25:00,
2013-10-15 19:30:00,48.0,44.9,29.76,NE,45,10.0,11.0,89,0.00,,,-99.99,Weather View 32 v60,2013-10-16 00:30:00,
2013-10-15 19:35:00,48.0,44.9,29.76,NNE,22,5.0,15.0,89,0.00,,,-99.99,Weather View 32 v60,2013-10-16 00:35:00,
2013-10-15 19:40:00,48.0,44.9,29.77,NE,45,5.0,15.0,89,0.00,,,-99.99,Weather View 32 v60,2013-10-16 00:40:00,
2013-10-15 19:45:00,48.0,44.9,29.77,NE,45,6.0,15.0,89,0.00,,,-99.99,Weather View 32 v60,2013-10-16 00:45:00,
2013-10-15 19:50:00,48.0,44.9,29.77,NW,315,3.0,15.0,89,0.00,,,-99.99,Weather View 32 v60,2013-10-16 00:50:00,
2013-10-15 19:55:00,48.0,44.9,29.77,East,90,5.0,15.0,89,0.00,,,-99.99,Weather View 32 v60,2013-10-16 00:55:00,
2013-10-15 20:00:00,47.0,43.9,29.78,West,270,2.0,15.0,89,0.00,,,-99.99,Weather View 32 v60,2013-10-16 01:00:00,
2013-10-15 20:05:00,47.0,43.9,29.78,NE,45,7.0,16.0,89,0.00,,,-99.99,Weather View 32 v60,2013-10-16 01:05:00,
2013-10-15 20:10:00,47.0,43.9,29.78,NE,45,13.0,16.0,89,0.00,,,-99.99,Weather View 32 v60,2013-10-16 01:10:00,
2013-10-15 20:15:00,47.0,43.9,29.79,NE,45,5.0,16.0,89,0.00,,,-99.99,Weather View 32 v60,2013-10-16 01:15:00,
2013-10-15 20:25:00,47.0,44.2,29.79,East,90,3.0,16.0,90,0.00,,,-99.99,Weather View 32 v60,2013-10-16 01:25:00,
2013-10-15 20:30:00,47.0,44.2,29.79,NNE,22,5.0,16.0,90,0.00,,,-99.99,Weather View 32 v60,2013-10-16 01:30:00,
2013-10-15 20:35:00,47.0,44.2,29.79,East,90,6.0,16.0,90,0.00,,,-99.99,Weather View 32 v60,2013-10-16 01:35:00,
2013-10-15 20:40:00,47.0,44.2,29.79,NNE,22,6.0,16.0,90,0.00,,,-99.99,Weather View 32 v60,2013-10-16 01:40:00,
2013-10-15 20:45:00,46.0,43.2,29.80,NE,45,13.0,16.0,90,0.00,,,-99.99,Weather View 32 v60,2013-10-16 01:45:00,
2013-10-15 20:50:00,46.0,42.9,29.80,NNW,338,3.0,16.0,89,0.00,,,-99.99,Weather View 32 v60,2013-10-16 01:50:00,
2013-10-15 20:55:00,46.0,43.2,29.81,East,90,7.0,16.0,90,0.00,,,-99.99,Weather View 32 v60,2013-10-16 01:55:00,
2013-10-15 21:00:00,46.0,43.2,29.81,East,90,5.0,16.0,90,0.00,,,-99.99,Weather View 32 v60,2013-10-16 02:00:00,
2013-10-15 21:05:00,46.0,43.2,29.81,NE,45,5.0,16.0,90,0.00,,,-99.99,Weather View 32 v60,2013-10-16 02:05:00,
2013-10-15 21:10:00,46.0,43.2,29.82,NNE,22,6.0,16.0,90,0.00,,,-99.99,Weather View 32 v60,2013-10-16 02:10:00,
2013-10-15 21:15:00,46.0,43.2,29.82,NNE,22,3.0,16.0,90,0.00,,,-99.99,Weather View 32 v60,2013-10-16 02:15:00,
2013-10-15 21:25:00,46.0,43.2,29.82,East,90,10.0,17.0,90,0.00,,,-99.99,Weather View 32 v60,2013-10-16 02:25:00,
2013-10-15 21:30:00,45.0,42.2,29.82,ESE,112,5.0,17.0,90,0.00,,,-99.99,Weather View 32 v60,2013-10-16 02:30:00,
2013-10-15 21:35:00,45.0,42.2,29.83,NE,45,8.0,19.0,90,0.00,,,-99.99,Weather View 32 v60,2013-10-16 02:35:00,
2013-10-15 21:40:00,45.0,42.2,29.83,ENE,68,5.0,19.0,90,0.00,,,-99.99,Weather View 32 v60,2013-10-16 02:40:00,
2013-10-15 21:48:00,45.0,42.2,29.83,NNE,22,6.0,19.0,90,0.00,,,-99.99,Weather View 32 v60,2013-10-16 02:48:00,
2013-10-15 21:55:00,45.0,42.2,29.83,NNE,22,3.0,19.0,90,0.00,,,-99.99,Weather View 32 v60,2013-10-16 02:55:00,
2013-10-15 22:00:00,45.0,42.2,29.83,NNE,22,3.0,19.0,90,0.00,,,-99.99,Weather View 32 v60,2013-10-16 03:00:00,
2013-10-15 22:05:00,45.0,42.2,29.83,NNE,22,5.0,19.0,90,0.00,,,-99.99,Weather View 32 v60,2013-10-16 03:05:00,
2013-10-15 22:10:00,45.0,42.2,29.83,ENE,68,7.0,19.0,90,0.00,,,-99.99,Weather View 32 v60,2013-10-16 03:10:00,
2013-10-15 22:15:00,45.0,42.2,29.84,NE,45,7.0,19.0,90,0.00,,,-99.99,Weather View 32 v60,2013-10-16 03:15:00,
2013-10-15 22:20:00,45.0,41.9,29.84,NE,45,8.0,19.0,89,0.00,,,-99.99,Weather View 32 v60,2013-10-16 03:20:00,
2013-10-15 22:25:00,45.0,41.9,29.84,NE,45,3.0,19.0,89,0.00,,,-99.99,Weather View 32 v60,2013-10-16 03:25:00,
2013-10-15 22:30:00,45.0,41.9,29.84,North,0,4.0,19.0,89,0.00,,,-99.99,Weather View 32 v60,2013-10-16 03:30:00,
2013-10-15 22:35:00,45.0,41.9,29.84,ENE,68,4.0,16.0,89,0.00,,,-99.99,Weather View 32 v60,2013-10-16 03:35:00,
2013-10-15 22:40:00,45.0,42.2,29.84,East,90,3.0,15.0,90,0.00,,,-99.99,Weather View 32 v60,2013-10-16 03:40:00,
2013-10-15 22:45:00,45.0,42.2,29.84,ENE,68,3.0,15.0,90,0.00,,,-99.99,Weather View 32 v60,2013-10-16 03:45:00,
2013-10-15 22:50:00,45.0,42.2,29.84,NE,45,5.0,15.0,90,0.00,,,-99.99,Weather View 32 v60,2013-10-16 03:50:00,
2013-10-15 22:55:00,45.0,42.2,29.85,NNE,22,3.0,15.0,90,0.00,,,-99.99,Weather View 32 v60,2013-10-16 03:55:00,
2013-10-15 23:00:00,45.0,41.9,29.85,East,90,3.0,15.0,89,0.00,,,-99.99,Weather View 32 v60,2013-10-16 04:00:00,
2013-10-15 23:05:00,45.0,41.9,29.85,NE,45,3.0,15.0,89,0.00,,,-99.99,Weather View 32 v60,2013-10-16 04:05:00,
2013-10-15 23:10:00,45.0,41.9,29.85,NE,45,6.0,15.0,89,0.00,,,-99.99,Weather View 32 v60,2013-10-16 04:10:00,
2013-10-15 23:15:00,44.0,41.0,29.85,NE,45,4.0,15.0,89,0.00,,,-99.99,Weather View 32 v60,2013-10-16 04:15:00,
2013-10-15 23:20:00,44.0,41.0,29.85,NE,45,6.0,15.0,89,0.00,,,-99.99,Weather View 32 v60,2013-10-16 04:20:00,
2013-10-15 23:25:00,44.0,41.0,29.85,NNE,22,5.0,15.0,89,0.00,,,-99.99,Weather View 32 v60,2013-10-16 04:25:00,
2013-10-15 23:30:00,44.0,41.0,29.85,North,0,4.0,15.0,89,0.00,,,-99.99,Weather View 32 v60,2013-10-16 04:30:00,
2013-10-15 23:35:00,44.0,41.0,29.85,NE,45,5.0,14.0,89,0.00,,,-99.99,Weather View 32 v60,2013-10-16 04:35:00,
2013-10-15 23:40:00,44.0,41.0,29.86,North,0,6.0,13.0,89,0.00,,,-99.99,Weather View 32 v60,2013-10-16 04:40:00,
2013-10-15 23:45:00,44.0,41.0,29.86,East,90,5.0,13.0,89,0.00,,,-99.99,Weather View 32 v60,2013-10-16 04:45:00,
2013-10-15 23:50:00,44.0,41.0,29.86,East,90,5.0,14.0,89,0.00,,,-99.99,Weather View 32 v60,2013-10-16 04:50:00,